Location: LDNL
(36.4545°S, 141.6685°E)
Time: 00:21:47
(UTC+11:00)

Courier 1B - Visible Passes

Search period start: 06 February 2023 00:00
Search period end: 16 February 2023 00:00
Orbit: 962 x 1209 km, 28.3° (Epoch: 04 February)

Date Brightness Start Highest point End Pass type
(mag) Time Alt. Az. Time Alt. Az. Time Alt. Az.
06 Feb 9.3 03:25:00 24° ENE 03:25:00 24° ENE 03:27:59 10° ENE visible
06 Feb 8.5 05:11:55 29° NW 05:14:22 35° NNW 05:21:18 10° NE visible
07 Feb 8.6 04:22:03 36° NNE 04:22:03 36° NNE 04:27:42 10° NE visible
07 Feb 9.1 06:08:59 11° WNW 06:14:06 21° NNW 06:19:36 10° NNE visible
08 Feb 9.7 03:32:18 17° NE 03:32:18 17° NE 03:33:57 10° ENE visible
08 Feb 8.8 05:19:16 25° NW 05:20:20 26° NNW 05:26:32 10° NNE visible
08 Feb 9.2 22:40:21 10° NNW 22:42:29 17° N 22:42:29 17° N visible
09 Feb 9.2 04:29:40 23° NNE 04:29:40 23° NNE 04:33:12 10° NE visible
09 Feb 9.5 06:16:57 10° NW 06:19:59 13° NNW 06:23:01 10° N visible
09 Feb 9.0 21:47:42 10° NNW 21:51:58 17° NNE 21:52:44 17° NE visible
09 Feb 9.7 23:38:57 10° NW 23:39:40 13° NW 23:39:40 13° NW visible
10 Feb 9.3 05:27:08 17° NNW 05:27:08 17° NNW 05:30:55 10° N visible
10 Feb 9.3 20:55:43 10° N 20:58:25 13° NNE 21:01:11 10° NE visible
10 Feb 8.7 22:45:40 10° NW 22:49:46 28° N 22:49:46 28° N visible
11 Feb 9.8 04:37:42 11° NNE 04:37:42 11° NNE 04:38:06 10° NNE visible
11 Feb 8.6 21:52:33 10° NNW 21:57:56 26° NNE 21:59:45 23° NE visible
11 Feb 9.4 23:44:55 10° WNW 23:46:40 18° NW 23:46:40 18° NW visible
12 Feb 8.9 20:59:40 10° NNW 21:04:21 20° NNE 21:09:12 10° ENE visible
12 Feb 8.3 22:51:27 10° NW 22:56:30 36° N 22:56:30 36° N visible
13 Feb 8.3 21:58:05 10° NW 22:03:59 34° NNE 22:06:14 28° NE visible
13 Feb 9.3 23:51:06 10° WNW 23:53:08 20° WNW 23:53:08 20° WNW visible
14 Feb 8.5 21:04:51 10° NW 21:10:22 29° NNE 21:15:51 11° ENE visible
14 Feb 8.2 22:57:32 10° WNW 23:02:45 40° NNW 23:02:45 40° NNW visible
15 Feb 8.1 22:04:02 10° WNW 22:10:09 40° N 22:12:19 32° NE visible
